Time,TemperatureF,DewpointF,PressureIn,WindDirection,WindDirectionDegrees,WindSpeedMPH,WindSpeedGustMPH,Humidity,HourlyPrecipIn,Conditions,Clouds,dailyrainin,SoftwareType,DateUTC
2013-05-16 00:13:00,62.1,61.5,29.64,WSW,247,0.0,-999.0,98,-99.99,,,0.00,Acu-Link.com,2013-05-16 04:13:00,
2013-05-16 00:28:00,61.3,60.8,29.64,West,270,0.0,-999.0,98,-99.99,,,0.00,Acu-Link.com,2013-05-16 04:28:00,
2013-05-16 00:44:00,60.8,60.2,29.64,South,180,0.0,-999.0,98,-99.99,,,0.00,Acu-Link.com,2013-05-16 04:44:00,
2013-05-16 00:59:00,60.4,59.9,29.64,WSW,247,0.0,-999.0,98,-99.99,,,0.00,Acu-Link.com,2013-05-16 04:59:00,
2013-05-16 01:14:00,59.9,59.3,29.64,SW,225,0.0,-999.0,98,-99.99,,,0.00,Acu-Link.com,2013-05-16 05:14:00,
2013-05-16 01:29:00,59.5,59.0,29.65,South,180,0.0,-999.0,98,-99.99,,,0.00,Acu-Link.com,2013-05-16 05:29:00,
2013-05-16 01:44:00,59.0,58.4,29.65,South,180,0.0,-999.0,98,-99.99,,,0.00,Acu-Link.com,2013-05-16 05:44:00,
2013-05-16 02:00:00,58.5,57.9,29.65,West,270,0.0,-999.0,98,-99.99,,,0.00,Acu-Link.com,2013-05-16 06:00:00,
2013-05-16 02:15:00,58.1,57.5,29.65,SSW,202,0.0,-999.0,98,-99.99,,,0.00,Acu-Link.com,2013-05-16 06:15:00,
2013-05-16 02:30:00,57.6,57.0,29.65,WSW,247,0.0,-999.0,98,-99.99,,,0.00,Acu-Link.com,2013-05-16 06:30:00,
2013-05-16 02:45:00,57.2,56.6,29.65,SSW,202,0.0,-999.0,98,-99.99,,,0.00,Acu-Link.com,2013-05-16 06:45:00,
2013-05-16 03:00:00,56.8,56.3,29.65,South,180,0.0,-999.0,98,-99.99,,,0.00,Acu-Link.com,2013-05-16 07:00:00,
2013-05-16 03:16:00,56.3,55.7,29.64,SSW,202,0.0,-999.0,98,-99.99,,,0.00,Acu-Link.com,2013-05-16 07:16:00,
2013-05-16 03:31:00,55.9,55.4,29.64,SSW,202,0.0,-999.0,98,-99.99,,,0.00,Acu-Link.com,2013-05-16 07:31:00,
2013-05-16 07:24:00,55.8,55.2,29.71,SW,225,0.0,-999.0,98,-99.99,,,0.00,Acu-Link.com,2013-05-16 11:24:00,
2013-05-16 07:40:00,56.8,56.3,29.71,SSW,202,0.0,-999.0,98,-99.99,,,0.00,Acu-Link.com,2013-05-16 11:40:00,
2013-05-16 07:55:00,57.9,57.4,29.72,SSW,202,0.0,-999.0,98,-99.99,,,0.00,Acu-Link.com,2013-05-16 11:55:00,
2013-05-16 08:10:00,59.2,58.6,29.72,SSW,202,0.0,-999.0,98,-99.99,,,0.00,Acu-Link.com,2013-05-16 12:10:00,
2013-05-16 08:25:00,60.4,59.9,29.73,SW,225,0.0,-999.0,98,-99.99,,,0.00,Acu-Link.com,2013-05-16 12:25:00,
2013-05-16 08:40:00,61.7,61.1,29.73,SW,225,0.0,-999.0,98,-99.99,,,0.00,Acu-Link.com,2013-05-16 12:40:00,
2013-05-16 08:56:00,62.8,62.2,29.74,South,180,0.0,-999.0,98,-99.99,,,0.00,Acu-Link.com,2013-05-16 12:56:00,
2013-05-16 09:11:00,63.5,62.9,29.74,SSW,202,0.0,-999.0,98,-99.99,,,0.00,Acu-Link.com,2013-05-16 13:11:00,
2013-05-16 09:26:00,63.9,63.3,29.74,South,180,0.0,-999.0,98,-99.99,,,0.00,Acu-Link.com,2013-05-16 13:26:00,
2013-05-16 09:41:00,64.6,64.0,29.74,South,180,0.0,-999.0,98,-99.99,,,0.00,Acu-Link.com,2013-05-16 13:41:00,
2013-05-16 09:56:00,66.6,66.0,29.73,South,180,0.0,-999.0,98,-99.99,,,0.00,Acu-Link.com,2013-05-16 13:56:00,
2013-05-16 10:12:00,67.6,67.1,29.73,SW,225,0.0,-999.0,98,-99.99,,,0.00,Acu-Link.com,2013-05-16 14:12:00,
2013-05-16 10:27:00,70.3,66.3,29.71,SE,135,0.0,-999.0,87,-99.99,,,0.00,Acu-Link.com,2013-05-16 14:27:00,
2013-05-16 10:42:00,70.5,66.8,29.72,South,180,0.0,-999.0,88,-99.99,,,0.00,Acu-Link.com,2013-05-16 14:42:00,
2013-05-16 10:57:00,71.1,67.0,29.73,ENE,67,0.0,-999.0,87,-99.99,,,0.00,Acu-Link.com,2013-05-16 14:57:00,
2013-05-16 11:13:00,72.9,63.3,29.72,West,270,0.0,-999.0,72,-99.99,,,0.00,Acu-Link.com,2013-05-16 15:13:00,
2013-05-16 11:28:00,73.6,61.5,29.71,SE,135,0.0,-999.0,66,-99.99,,,0.00,Acu-Link.com,2013-05-16 15:28:00,
2013-05-16 11:43:00,74.7,61.2,29.71,ESE,112,0.0,-999.0,63,-99.99,,,0.00,Acu-Link.com,2013-05-16 15:43:00,
2013-05-16 11:58:00,74.8,60.5,29.70,NW,315,1.1,-999.0,61,-99.99,,,0.00,Acu-Link.com,2013-05-16 15:58:00,
2013-05-16 12:13:00,75.9,60.5,29.71,West,270,0.0,-999.0,59,-99.99,,,0.00,Acu-Link.com,2013-05-16 16:13:00,
2013-05-16 12:29:00,76.1,59.7,29.70,WSW,247,1.6,-999.0,57,-99.99,,,0.00,Acu-Link.com,2013-05-16 16:29:00,
2013-05-16 12:44:00,77.5,60.6,29.69,WNW,292,3.8,-999.0,56,-99.99,,,0.00,Acu-Link.com,2013-05-16 16:44:00,
2013-05-16 12:59:00,79.0,59.8,29.69,East,90,0.0,-999.0,52,-99.99,,,0.00,Acu-Link.com,2013-05-16 16:59:00,
2013-05-16 13:14:00,80.4,60.6,29.69,NE,45,0.0,-999.0,51,-99.99,,,0.00,Acu-Link.com,2013-05-16 17:14:00,
2013-05-16 13:30:00,78.8,59.1,29.68,West,270,3.1,-999.0,51,-99.99,,,0.00,Acu-Link.com,2013-05-16 17:30:00,
2013-05-16 13:45:00,80.4,61.2,29.68,WNW,292,3.8,-999.0,52,-99.99,,,0.00,Acu-Link.com,2013-05-16 17:45:00,
2013-05-16 14:00:00,80.1,60.8,29.67,West,270,0.0,-999.0,52,-99.99,,,0.00,Acu-Link.com,2013-05-16 18:00:00,
2013-05-16 14:16:00,81.3,63.1,29.67,SSE,157,3.1,-999.0,54,-99.99,,,0.00,Acu-Link.com,2013-05-16 18:16:00,
2013-05-16 14:31:00,82.9,62.9,29.66,West,270,3.8,-999.0,51,-99.99,,,0.00,Acu-Link.com,2013-05-16 18:31:00,
2013-05-16 14:46:00,81.5,62.2,29.66,NNW,337,6.7,-999.0,52,-99.99,,,0.00,Acu-Link.com,2013-05-16 18:46:00,
2013-05-16 15:01:00,81.7,62.9,29.66,North,0,4.7,-999.0,53,-99.99,,,0.00,Acu-Link.com,2013-05-16 19:01:00,
2013-05-16 15:17:00,81.5,63.7,29.66,WNW,292,4.3,-999.0,55,-99.99,,,0.00,Acu-Link.com,2013-05-16 19:17:00,
2013-05-16 15:32:00,82.0,64.3,29.65,ESE,112,2.2,-999.0,55,-99.99,,,0.00,Acu-Link.com,2013-05-16 19:32:00,
2013-05-16 15:47:00,81.5,63.2,29.65,South,180,2.7,-999.0,54,-99.99,,,0.00,Acu-Link.com,2013-05-16 19:47:00,
2013-05-16 16:02:00,80.6,63.4,29.65,NE,45,0.0,-999.0,56,-99.99,,,0.00,Acu-Link.com,2013-05-16 20:02:00,
2013-05-16 16:17:00,80.6,63.9,29.65,West,270,2.7,-999.0,57,-99.99,,,0.00,Acu-Link.com,2013-05-16 20:17:00,
2013-05-16 16:33:00,80.6,63.9,29.64,South,180,3.1,-999.0,57,-99.99,,,0.00,Acu-Link.com,2013-05-16 20:33:00,
2013-05-16 16:48:00,80.1,64.4,29.64,NNW,337,0.0,-999.0,59,-99.99,,,0.00,Acu-Link.com,2013-05-16 20:48:00,
2013-05-16 17:03:00,80.4,65.2,29.64,WNW,292,1.1,-999.0,60,-99.99,,,0.00,Acu-Link.com,2013-05-16 21:03:00,
2013-05-16 17:18:00,80.1,64.9,29.64,NNW,337,2.2,-999.0,60,-99.99,,,0.00,Acu-Link.com,2013-05-16 21:18:00,
2013-05-16 17:33:00,81.3,66.1,29.64,SE,135,0.0,-999.0,60,-99.99,,,0.00,Acu-Link.com,2013-05-16 21:33:00,
2013-05-16 17:49:00,81.5,65.8,29.63,SW,225,0.0,-999.0,59,-99.99,,,0.00,Acu-Link.com,2013-05-16 21:49:00,
2013-05-16 18:04:00,80.6,64.4,29.64,ESE,112,0.0,-999.0,58,-99.99,,,0.00,Acu-Link.com,2013-05-16 22:04:00,
2013-05-16 18:19:00,80.6,64.9,29.64,South,180,0.0,-999.0,59,-99.99,,,0.00,Acu-Link.com,2013-05-16 22:19:00,
2013-05-16 18:34:00,80.8,64.6,29.64,WSW,247,0.0,-999.0,58,-99.99,,,0.00,Acu-Link.com,2013-05-16 22:34:00,
2013-05-16 18:50:00,80.2,65.1,29.64,West,270,0.0,-999.0,60,-99.99,,,0.00,Acu-Link.com,2013-05-16 22:50:00,
2013-05-16 19:05:00,79.7,64.6,29.65,SSE,157,0.0,-999.0,60,-99.99,,,0.00,Acu-Link.com,2013-05-16 23:05:00,
2013-05-16 19:20:00,79.5,64.9,29.66,SW,225,0.0,-999.0,61,-99.99,,,0.00,Acu-Link.com,2013-05-16 23:20:00,
2013-05-16 19:35:00,79.0,64.8,29.66,West,270,0.0,-999.0,62,-99.99,,,0.00,Acu-Link.com,2013-05-16 23:35:00,
2013-05-16 19:50:00,77.4,66.0,29.67,South,180,0.0,-999.0,68,-99.99,,,0.00,Acu-Link.com,2013-05-16 23:50:00,
2013-05-16 20:06:00,75.6,66.7,29.68,South,180,0.0,-999.0,74,-99.99,,,0.00,Acu-Link.com,2013-05-17 00:06:00,
2013-05-16 20:21:00,73.6,67.0,29.68,South,180,0.0,-999.0,80,-99.99,,,0.00,Acu-Link.com,2013-05-17 00:21:00,
2013-05-16 20:36:00,71.8,67.4,29.69,SW,225,0.0,-999.0,86,-99.99,,,0.00,Acu-Link.com,2013-05-17 00:36:00,
2013-05-16 20:51:00,70.2,67.4,29.69,SSW,202,0.0,-999.0,91,-99.99,,,0.00,Acu-Link.com,2013-05-17 00:51:00,
2013-05-16 21:07:00,68.9,68.3,29.71,SSW,202,0.0,-999.0,98,-99.99,,,0.00,Acu-Link.com,2013-05-17 01:07:00,
2013-05-16 21:22:00,67.8,67.2,29.71,SSW,202,0.0,-999.0,98,-99.99,,,0.00,Acu-Link.com,2013-05-17 01:22:00,
2013-05-16 21:37:00,66.6,66.0,29.72,SW,225,0.0,-999.0,98,-99.99,,,0.00,Acu-Link.com,2013-05-17 01:37:00,
2013-05-16 21:52:00,65.5,64.9,29.73,SW,225,0.0,-999.0,98,-99.99,,,0.00,Acu-Link.com,2013-05-17 01:52:00,
2013-05-16 22:07:00,64.4,63.8,29.74,SW,225,0.0,-999.0,98,-99.99,,,0.00,Acu-Link.com,2013-05-17 02:07:00,
2013-05-16 22:23:00,63.5,62.9,29.74,SW,225,0.0,-999.0,98,-99.99,,,0.00,Acu-Link.com,2013-05-17 02:23:00,
2013-05-16 22:38:00,63.0,62.4,29.73,West,270,0.0,-999.0,98,-99.99,,,0.00,Acu-Link.com,2013-05-17 02:38:00,
2013-05-16 22:53:00,62.2,61.7,29.74,WSW,247,0.0,-999.0,98,-99.99,,,0.00,Acu-Link.com,2013-05-17 02:53:00,
2013-05-16 23:08:00,61.7,61.1,29.75,SSW,202,0.0,-999.0,98,-99.99,,,0.00,Acu-Link.com,2013-05-17 03:08:00,
2013-05-16 23:23:00,61.7,61.1,29.75,SSW,202,0.0,-999.0,98,-99.99,,,0.00,Acu-Link.com,2013-05-17 03:23:00,
2013-05-16 23:39:00,63.3,59.1,29.75,West,270,0.0,-999.0,86,-99.99,,,0.00,Acu-Link.com,2013-05-17 03:39:00,
2013-05-16 23:54:00,64.0,55.6,29.76,SSW,202,0.0,-999.0,74,-99.99,,,0.00,Acu-Link.com,2013-05-17 03:54:00,